Regional Weather Roundup
Issued by NWS Wakefield, VA

Home | Current Version | Previous Version | Text Only | Print | Product List | Glossary Off
Versions: 1 2 3 4 5 6 7 8 9 10 11 12 13 14 15 16 17 18 19 20 21 22 23 24 25 26 27 28 29 30 31 32 33 34 35 36 37 38 39 40 41 42 43 44 45 46 47 48 49 50

799
ASUS41 KAKQ 270515
RWRAKQ

REGIONAL WEATHER ROUNDUP
NATIONAL WEATHER SERVICE WAKEFIELD VA
100 AM EDT SAT AUG 27 2016

Note: "fair" indicates few or no clouds below 12,000 feet with no
significant weather and/or obstructions to visibility. * = Denotes
station may not report precipitation (e.g., rain,snow,etc.),
thunder or fog.

VAZ042-051-052>054-056-270600-
NORTHERN VIRGINIA

CITY           SKY/WX    TMP DP  RH WIND       PRES   REMARKS
WASH NATIONAL  MOCLDY    82  74  76 N6        30.09S
DULLES         CLEAR     81  71  71 N7        30.11R
FORT BELVOIR   MOCLDY    75  73  92 CALM      30.09R
QUANTICO       CLOUDY    80  77  90 NW7       30.10R
FREDERICKSBRG* CLEAR     79  79 100 CALM      30.08R
STAFFORD*      MOCLDY    76  74  93 CALM      30.13S
WARRENTON      PTCLDY    74  69  83 CALM      30.10S HAZE
CULPEPER*      PTCLDY    77  76  98 CALM      30.11S
MANASSAS*      MOCLDY    75  75 100 CALM      30.10S
LEESBURG*      PTCLDY    79  72  78 NW3       30.13R
WINCHESTER     CLEAR     77  66  69 CALM      30.14S
FRONT ROYAL*   FAIR      73  72  94 CALM      30.14R
LURAY*         FAIR     N/A N/A N/A CALM      30.16R
$$

VAZ048-049-060>072-079>083-270600-
CENTRAL AND SOUTH CENTRAL VIRGINIA

CITY           SKY/WX    TMP DP  RH WIND       PRES   REMARKS
RICHMOND       PTCLDY    81  74  79 CALM      30.08R
CHESTERFIELD*  FAIR      79  63  57 CALM      30.10R
PETERSBURG*    CLEAR    N/A N/A N/A CALM      30.09R
HANOVER        PTCLDY    77  74  90 CALM      30.10R
TAPPAHANNOCK*  CLEAR     76  76 100 CALM      30.09R
QUINTON*       FAIR      77  75  93 N6        30.08R
CHARLOTTSVILLE CLEAR     76  73  91 CALM      30.11S
GORDONSVILLE*  FAIR      73  73 100 CALM      30.10S
ORANGE*          N/A     73  73 100 CALM      30.12S FOG
LOUISA*        FOG       79  77  94 CALM      30.10S VSB 3/4
BUMPASS*       FAIR      76  76 100 CALM      30.10R
FARMVILLE*     PTCLDY   N/A N/A N/A CALM      30.09S HAZE
CREWE*         FAIR      74  74 100 CALM      30.09S
FORT PICKETT*  NOT AVBL
CHASE CITY*    FAIR      75  73  94 CALM      30.10S
CLARKSVILLE*   FAIR      75  75 100 CALM      30.09S
SOUTH HILL*    CLEAR     73  72  98 CALM      30.15R
LAWRENCEVILLE* FAIR      76  75  97 CALM      30.09S
EMPORIA*         N/A     72  72 100 CALM      30.09S FOG
$$

VAZ088>098-270600-
SOUTHEAST VIRGINIA

CITY           SKY/WX    TMP DP  RH WIND       PRES   REMARKS
NORFOLK        CLEAR     81  75  82 SW6       30.07R
VIRGINIA BEACH PTCLDY    83  73  72 SW3       30.07R
NORFOLK NAVAL  PTCLDY    79  74  84 CALM      30.08S
WEST POINT*    MOCLDY    76  74  92 CALM      30.09S
SALUDA*        MOCLDY    76  75  95 CALM      30.08R
NEWPORT NEWS   PTCLDY    75  73  93 CALM      30.07S
LANGLEY AFB    MOCLDY    77  74  90 CALM      30.07R
FORT EUSTIS    MOCLDY    78  73  86 CALM      30.05R
WILLIAMSBURG*  CLEAR     79  75  89 CALM      30.09R
HR EXEC AP*    FAIR      72  68  88 CALM      30.10R
FRANKLIN*      CLEAR     76  74  95 CALM      30.08S
US460-WAKEFLD  PTCLDY    76  74  93 CALM      30.08R FOG
$$

VAZ020-022-025-037-045-270600-
WEST CENTRAL AND SOUTHWEST VIRGINIA

CITY           SKY/WX    TMP DP  RH WIND       PRES   REMARKS
STAUNTON*      CLEAR     70  69  96 CALM      30.18F
WAYNESBORO*    FAIR      72  70  93 CALM      30.18S
HOT SPRINGS VA CLEAR     73  64  73 NE6       30.31S
LYNCHBURG      CLEAR     73  72  96 CALM      30.14S
DANVILLE       CLEAR     74  73  97 SW3       30.10F
SOUTH BOSTON*  FAIR      74  73  95 CALM      30.09S
MARTINSVILLE   CLEAR     69  68  96 CALM      30.16S FOG
ROANOKE        CLEAR     77  72  84 N3        30.17R
BLACKSBURG     CLEAR     71  70  96 CALM      30.24F FOG
DUBLIN*        CLEAR     72  71  95 CALM      30.23S
MARION*        CLEAR     68  66  96 CALM      30.27S
HILLSVILLE*    CLEAR     69  69 100 SE5       30.24S FOG
RICHLANDS*     FAIR      71  70  96 CALM      30.25S
WISE*          PTCLDY    72  61  68 CALM      30.25F
ABINGDON*      CLEAR     73  69  88 E3        30.21S
$$

MDZ021>025-VAZ099-100-270600-
SOUTHERN MARYLAND AND THE DELMARVA PENINSULA

CITY           SKY/WX    TMP DP  RH WIND       PRES   REMARKS
PATUXENT RIVER CLEAR     75  72  90 CALM      30.08R
BAY BRIDGE APT CLEAR     81  73  78 N3        30.09R
LEONARDTOWN    CLEAR     73  72  94 CALM      30.10S
DOVER          CLEAR     74  74 100 N6        30.07R
GEORGETOWN     CLEAR     74  72  93 CALM      30.09R
EASTON         CLEAR     76  76  99 CALM      30.13R
CAMBRIDGE      CLEAR     73  72  94 CALM      30.08R
SALISBURY      CLEAR     74  73  97 CALM      30.08R
OCEAN CITY     CLEAR     74  71  91 CALM      30.08R
WALLOPS ISLAND CLEAR     78  71  79 CALM      30.08R
ACCOMACK*      CLEAR     75  72  91 CALM      30.08R
$$

NCZ012>017-030>032-270600-
NORTH CENTRAL AND EASTERN NORTH CAROLINA

CITY           SKY/WX    TMP DP  RH WIND       PRES   REMARKS
ROANOKE RAPIDS FAIR      75  73  94 CALM      30.08S
RALEIGH        PTCLDY    80  73  79 CALM      30.10S
ELIZABETH CITY CLEAR     75  73  93 S3        30.08S
AHOSKIE*       CLEAR     75  74  95 CALM      30.09R
EDENTON*       CLEAR     81  75  81 SW6       30.09S
CURRITUCK*       N/A     78  76  94 SW3       30.08S
KILL DEVIL HLS CLEAR     79  76  90 SW5       30.07S
MANTEO         CLEAR     79  74  85 SW7       30.08S
CAPE HATTERAS  CLEAR     81  71  71 S5        30.08S
TARBORO*       FAIR      78  75  88 CALM      30.09S
GOLDSBORO      CLEAR     75  68  78 CALM      30.09
WASHINGTON     CLEAR     76  73  88 SW3       30.09S
GREENVILLE     CLEAR     77  73  88 CALM      30.10S
NEW BERN       CLEAR     74  71  91 CALM      30.10S
WILMINGTON     CLEAR     74  71  91 CALM      30.09R
$$

VAZ048-270600-
ELSEWHERE

CITY           SKY/WX    TMP DP  RH WIND       PRES   REMARKS
HARRISBURG PA  CLEAR     74  71  91 N3        30.11R
BALTIMORE      PTCLDY    75  71  87 CALM      30.10R
ANNAPOLIS      CLEAR     81  77  88 NW3       30.08S
ANDREWS AFB    CLEAR     75  71  88 CALM      30.10R
PHILADELPHIA   CLEAR     80  65  59 NW3       30.10R
HENDERSON NC   CLEAR     75  71  89 CALM      30.10S
GREENSBORO     CLEAR     79  72  79 CALM      30.12S
ROCKY MOUNT    CLEAR     78  75  90 S6        30.09S
$$

VAZ100-270600-
MARINE

STATION/POSITION TIME  TEMP    WIND        PRES    WAVE   SWELL
                       AIR SEA DIR/SP/G            HT/PER HT/PER
                 (UTC) (F)     (DEG/KT/KT) (MB)    (FT/S) (FT/S)
BRANDYWINE LGT   0400   82      20/ 12/ 13   N/A
CAPE MAY NJ      0400   82 77  360/  4/  6 1017.5R
LEWES DE         0400   81 76  300/  6/  6 1017.9R
OCEAN-CITY-INLET 0400   78 77  280/  1/  2 1018.4R
WACHAPREAGUE VA  0400   79 86   CALM  /  1 1018.2R
THOMAS POINT MD  0500   82 83  350/  3/  4 1020.3R
GOOSES REEF MD   0500   85 84   50/  4/  4 1019.2R   0
COVE POINT MD    0400   82      CALM  /  1 1019.0R
SOLOMONS ISLAND  0400   81 85   20/  2/  2   N/A
PINEY POINT MD   0400             CALM       N/A
POTOMAC MD       0500   84 84   80/  2/  2 1017.5R   1
CAMBRIDGE MD     0400   83 85   50/  2/  2 1017.7R
LEWISETTA VA     0400   82 85  270/  4/  5 1018.0R
RAPPAHANNOCK LGT 0400          210/  1/  2 1018.7R
STINGRAY PT      0500   84 84  230/  4/  4 1018.8R   0
YORK RVR RNG VA  0400   84     160/  2/  2 1017.6R
YORKTOWN VA      0400   81 84   CALM  /  1 1017.7R
JAMESTOWN VA     0500   81 85   CALM  /  2   N/A     0
DOMINION TERM VA 0400   85     110/  1/  2 1018.2R
KIPTOPEKE VA     0400      81  130/  1/  1   N/A
CHES BAY BRIDGE  0400   84 81  180/  3/  4 1018.0R
CAPE HENRY VA    0400   83     210/  4/  5   N/A
WILLOUBY STN VA  0400   84     360/  2/  2   N/A
CAPE HENRY BUOY  0412      79                N/A     2/ 7
1ST LANDING BUOY 0500   82 80  220/  2/  4 1018.2R   1/ 5
CAPE CHARLES BUO 0426      78                N/A     2/ 8
OFFSHORE WE BUOY 0421      79                N/A     2/ 8
64NM E OF VA BCH 0450   81 81  230/ 12/ 14 1018.0R   2/ 8   2/ 8
DUCK PIER NC     0400   81 75  220/  8/ 12 1017.9R
44100 DUCK FRF   0405      79                N/A     2/ 7
44056 DUCK FRF   0411      79                N/A     2/ 8
OREGON INLET NC  0400   81 82  180/  8/  9 1018.3R
HATTERAS NC      0400   81 83  160/  7/  8 1018.1F
DIAMOND SHLS NC  0450   81 85  160/  6/  8 1018.6F   2/ 7   2/ 7
CAPE LOOKOUT NC  0500   81     140/  6/  6 1018.5R
$$




USA.gov is the U.S. government's official web portal to all federal, state and local government web resources and services.